Location: Unspecified
(0.0000°N, 0.0000°E)
Time: 09:26:00
(UTC+00:00)

Amateur Radio Satellites - All Passes

Search period start: 29 April 2017 08:56
Search period end: 30 April 2017 08:56
Location: Unspecified, 0.0000°N, 0.0000°E

Satellite Date Start Highest point End Downlink Frequencies (MHz)
Time Altitude Azimuth
O/OREOS (USA 219) 29 Apr 09:04:22 09:07:38 19° 285° (WNW) 09:10:55 437.305
UNISAT 6 29 Apr 09:06:30 09:10:15 26° 79° (ENE) 09:13:53 437.425
DELFI C3 29 Apr 09:07:42 09:11:35 55° 102° (ESE) 09:15:27 145.870
JUGNU 29 Apr 09:09:18 09:14:25 30° 161° (SSE) 09:19:31 437.505
OBJECT BX 29 Apr 09:09:51 09:13:17 38° 101° (E) 09:16:44 145.990 - 145.960
PRISM 29 Apr 09:20:14 09:24:21 77° 80° (E) 09:28:28 437.425
LO-87 29 Apr 10:05:34 10:08:09 19° 101° (ESE) 10:10:46 145.935 - 145.965
ESTCUBE 1 29 Apr 10:07:49 10:09:11 11° 102° (ESE) 10:10:34 437.505/2401.250
FO-29 29 Apr 10:19:10 10:26:16 59° 256° (WSW) 10:32:34 435.910
TIGRISAT 29 Apr 10:20:41 10:24:39 30° 258° (WSW) 10:28:32 435.000
AO-85 29 Apr 10:21:25 10:25:51 37° 291° (WNW) 10:29:59 145.980
AIST 2D 29 Apr 10:29:52 10:32:44 24° 79° (E) 10:35:34 435.315
QB50P2 29 Apr 10:30:33 10:32:40 13° 78° (ENE) 10:34:45 145.880/145.840
SRMSAT 29 Apr 10:37:13 10:41:11 18° 165° (SSE) 10:45:09 437.500
UNISAT 6 29 Apr 10:44:21 10:46:39 14° 257° (WSW) 10:48:55 437.425
NANOSAT C BR1 29 Apr 10:48:41 10:51:47 20° 78° (ENE) 10:54:52 145.865
BEESAT 3 29 Apr 10:53:14 10:57:02 68° 112° (ESE) 11:00:52 437.485
JUGNU 29 Apr 10:57:39 11:03:32 83° 159° (SSE) 11:09:23 437.505
BEESAT 2 29 Apr 10:59:17 11:02:10 20° 112° (ESE) 11:05:04 435.950
DUCHIFAT 1 29 Apr 11:16:01 11:20:03 44° 78° (ENE) 11:24:03 145.980
EO-79 29 Apr 11:17:09 11:21:22 62° 78° (ENE) 11:25:32 145.935-145.965
PCSat 29 Apr 11:24:40 11:29:46 44° 71° (ENE) 11:34:52 145.827
ESTCUBE 1 29 Apr 11:41:42 11:45:42 32° 282° (WNW) 11:49:44 437.505/2401.250
VELOX 1 29 Apr 11:42:30 11:46:43 47° 102° (ESE) 11:50:56 145.980
50 SAT 29 Apr 11:54:12 11:57:14 30° 101° (ESE) 12:00:17 437.505
POLYITAN 1 29 Apr 11:57:38 12:01:25 32° 258° (WSW) 12:05:12 437.675
QB50P2 29 Apr 12:04:47 12:08:11 23° 258° (WSW) 12:11:33 145.880/145.840
BUGSAT 1 29 Apr 12:06:28 12:10:37 55° 78° (ENE) 12:14:41 437.445
SPROUT 29 Apr 12:24:02 12:28:02 42° 282° (WNW) 12:32:04 437.525
NANOSAT C BR1 29 Apr 12:24:41 12:27:14 16° 258° (WSW) 12:29:46 145.865
SRMSAT 29 Apr 12:25:09 12:30:44 42° 160° (SSE) 12:36:21 437.500
DX 1 29 Apr 12:25:10 12:29:22 54° 102° (ESE) 12:33:36 434.975-435.025
BEESAT 2 29 Apr 12:37:51 12:39:40 13° 292° (WNW) 12:41:29 435.950
JUGNU 29 Apr 12:47:16 12:52:35 36° 340° (NNW) 12:57:55 437.505
Oscar 19 29 Apr 12:55:43 13:00:46 59° 78° (ENE) 13:05:49 437.125/150
PCSat 29 Apr 13:11:01 13:12:54 12° 250° (WSW) 13:14:48 145.827
Gurwin Techsat 1B 29 Apr 13:19:49 13:25:03 58° 77° (ENE) 13:30:15 435.225
UKube-1 29 Apr 13:22:38 13:26:30 34° 282° (WNW) 13:30:25 .
BEESAT 29 Apr 13:45:18 13:48:23 17° 103° (ESE) 13:51:27 436.000
SRMSAT 29 Apr 14:14:01 14:19:58 71° 339° (NNW) 14:25:56 437.500
ITUPSAT 1 29 Apr 14:26:11 14:30:53 60° 102° (ESE) 14:35:38 437.325
NO-84 29 Apr 14:28:11 14:29:11 11° 124° (SE) 14:30:10 435.350 FM
ITAMSAT 1 29 Apr 14:28:12 14:32:52 33° 77° (ENE) 14:37:30 435.822/435.867
JUGNU 29 Apr 14:38:36 14:42:04 16° 347° (NNW) 14:45:32 437.505
MOZHAYETS 4 29 Apr 14:48:59 14:53:27 48° 102° (ESE) 14:57:56
AO-7 29 Apr 14:50:28 14:58:34 57° 74° (ENE) 15:06:36 .
YUBILEINY 29 Apr 14:58:41 15:07:22 64° 87° (E) 15:16:05 435.215
SO-50 29 Apr 15:14:04 15:18:16 39° 68° (ENE) 15:22:34 436.795
BEESAT 29 Apr 15:22:02 15:25:52 24° 282° (WNW) 15:29:44 436.000
ISS 29 Apr 15:22:50 15:25:05 17° 54° (NE) 15:27:21 437.550
CUBESAT XI-V 29 Apr 15:48:13 15:52:21 31° 102° (ESE) 15:56:28 437.345
NO-84 29 Apr 16:02:37 16:06:44 41° 301° (WNW) 16:10:36 435.350 FM
SRMSAT 29 Apr 16:04:21 16:09:20 27° 342° (NNW) 16:14:20 437.500
ITAMSAT 1 29 Apr 16:09:11 16:12:02 15° 257° (WSW) 16:14:53 435.822/435.867
Tancredo 1 29 Apr 16:14:00 16:16:53 36° 234° (SW) 16:19:47 437.200
KKS-1 29 Apr 16:16:24 16:20:48 83° 102° (ESE) 16:25:14 437.445
STARS 29 Apr 16:39:47 16:44:03 58° 102° (ESE) 16:48:21 437.465
RS-15 29 Apr 16:42:57 16:54:32 67° 69° (ENE) 17:05:31 29.354- 29.394
AO-7 29 Apr 16:45:37 16:50:54 19° 253° (WSW) 16:56:12 .
YUBILEINY 29 Apr 16:59:25 17:03:47 15° 267° (W) 17:08:11 435.215
ISS 29 Apr 16:59:39 17:01:22 14° 234° (SW) 17:03:06 437.550
CUBESAT XI-V 29 Apr 17:27:31 17:29:26 12° 282° (WNW) 17:31:21 437.345
XW-2D 29 Apr 17:29:57 17:33:30 41° 79° (ENE) 17:37:02 145.860 - 145.880
CUTE-I 29 Apr 17:36:27 17:41:34 46° 78° (ENE) 17:46:39 437.470
XW-2B 29 Apr 17:36:52 17:40:31 52° 79° (E) 17:44:09 145.730 - 145.750
KAITUO 1B 29 Apr 17:39:13 17:42:43 41° 79° (E) 17:46:11 145.475/437.950
XW-2C 29 Apr 17:48:49 17:52:35 88° 75° (ENE) 17:56:18 145.795 - 145.815
LilacSat-2 29 Apr 17:51:20 17:55:06 79° 259° (WSW) 17:58:50 437.200
DOVE 4 29 Apr 17:52:43 17:57:47 52° 258° (WSW) 18:02:56 437.250
SRMSAT 29 Apr 17:56:24 17:59:11 13° 350° (N) 18:01:57 437.500
XW-2F 29 Apr 18:12:14 18:15:43 38° 259° (W) 18:19:10 145.980 - 146.000
NUDT-PHONESAT 29 Apr 18:14:12 18:17:45 46° 259° (W) 18:21:15 437.300
M-CUBED/EXP-1 PRIME 29 Apr 18:20:28 18:21:11 10° 104° (ESE) 18:21:52 437.505
JUGNU 29 Apr 18:20:30 18:22:16 11° 8° (N) 18:24:03 437.505
HO-68 29 Apr 18:27:19 18:33:37 34° 75° (ENE) 18:39:52 435.675
RS-15 29 Apr 18:59:07 19:06:26 19° 248° (WSW) 19:13:39 29.354- 29.394
XW-2A 29 Apr 19:08:25 19:11:48 76° 258° (WSW) 19:15:09 145.665 - 145.685
STRAND 1 29 Apr 19:14:05 19:19:10 72° 283° (WNW) 19:24:18 437.568
AAUSAT CUBESAT 2 29 Apr 19:16:22 19:19:37 23° 78° (ENE) 19:22:51 437.432
CUTE-I 29 Apr 19:19:47 19:21:18 11° 256° (WSW) 19:22:48 437.470
UWE-3 29 Apr 19:21:38 19:25:14 25° 79° (E) 19:28:44 435.000/436.395/437.385
O/OREOS (USA 219) 29 Apr 19:35:35 19:39:32 30° 76° (ENE) 19:43:28 437.305
CUTE 1.7 + AOD 2 29 Apr 19:38:56 19:42:41 32° 258° (WSW) 19:46:25 437.475
CUBEBUG 2 29 Apr 19:40:29 19:45:05 87° 262° (W) 19:49:29 437.445
SEEDS 29 Apr 19:52:48 19:56:34 35° 258° (WSW) 20:00:23 437.485
M-CUBED/EXP-1 PRIME 29 Apr 19:53:01 19:55:26 17° 287° (WNW) 19:57:46 437.505
JUGNU 29 Apr 20:07:39 20:12:06 22° 16° (NNE) 20:16:35 437.505
ZACube-1 29 Apr 20:09:12 20:13:28 58° 79° (ENE) 20:17:36 437.345
AO-73 29 Apr 20:14:09 20:18:23 60° 79° (E) 20:22:32 145.935
HO-68 29 Apr 20:15:18 20:21:00 26° 255° (WSW) 20:26:43 435.675
Oscar 11 29 Apr 20:25:37 20:29:55 70° 78° (ENE) 20:34:09 .
AAUSAT CUBESAT 2 29 Apr 20:52:57 20:54:48 13° 258° (WSW) 20:56:40 437.432
AO-85 29 Apr 20:54:16 20:57:15 18° 70° (ENE) 21:00:24 145.980
TIGRISAT 29 Apr 20:57:54 21:00:51 18° 103° (ESE) 21:03:51 435.000
UWE-3 29 Apr 20:59:12 21:01:23 14° 257° (WSW) 21:03:32 435.000/436.395/437.385
OBJECT BX 29 Apr 21:00:07 21:03:11 26° 79° (E) 21:06:14 145.990 - 145.960
DELFI C3 29 Apr 21:05:57 21:09:47 51° 79° (ENE) 21:13:38 145.870
O/OREOS (USA 219) 29 Apr 21:17:29 21:18:39 11° 255° (WSW) 21:19:50 437.305
UNISAT 6 29 Apr 21:18:54 21:23:01 38° 102° (ESE) 21:27:14 437.425
PRISM 29 Apr 21:22:49 21:26:54 84° 105° (ESE) 21:30:58 437.425
SRMSAT 29 Apr 21:36:52 21:39:50 14° 11° (N) 21:42:47 437.500
FO-29 29 Apr 21:50:44 21:56:32 73° 102° (ESE) 22:03:10 435.910
LO-87 29 Apr 21:54:24 21:56:10 13° 79° (ENE) 21:57:56 145.935 - 145.965
JUGNU 29 Apr 21:55:35 22:01:25 53° 21° (NNE) 22:07:15 437.505
AIST 2D 29 Apr 22:16:35 22:18:39 15° 101° (ESE) 22:20:44 435.315
ESTCUBE 1 29 Apr 22:20:13 22:23:12 18° 78° (ENE) 22:26:10 437.505/2401.250
POLYITAN 1 29 Apr 22:30:25 22:31:57 12° 102° (ESE) 22:33:29 437.675
TIGRISAT 29 Apr 22:34:00 22:37:15 20° 281° (W) 22:40:35 435.000
AO-85 29 Apr 22:34:04 22:37:24 21° 246° (WSW) 22:40:57 145.980
QB50P2 29 Apr 22:36:04 22:38:44 16° 102° (ESE) 22:41:25 145.880/145.840
BEESAT 3 29 Apr 22:44:57 22:48:51 69° 69° (ENE) 22:52:42 437.485
BEESAT 2 29 Apr 22:52:09 22:55:15 22° 68° (ENE) 22:58:19 435.950
NANOSAT C BR1 29 Apr 22:53:54 22:57:16 24° 102° (ESE) 23:00:40 145.865
DUCHIFAT 1 29 Apr 23:21:07 23:25:11 53° 102° (ESE) 23:29:18 145.980
EO-79 29 Apr 23:23:01 23:27:12 76° 101° (E) 23:31:26 145.935-145.965
SRMSAT 29 Apr 23:24:33 23:29:39 29° 18° (NNE) 23:34:44 437.500
LO-87 29 Apr 23:27:01 23:29:20 16° 258° (WSW) 23:31:38 145.935 - 145.965
50 SAT 29 Apr 23:39:10 23:41:27 17° 78° (ENE) 23:43:43 437.505
JUGNU 29 Apr 23:44:37 23:50:29 56° 201° (SSW) 23:56:23 437.505
AIST 2D 29 Apr 23:49:49 23:51:35 13° 281° (W) 23:53:22 435.315
VELOX 1 29 Apr 23:53:45 23:58:12 71° 77° (ENE) 00:02:37 145.980
ESTCUBE 1 29 Apr 23:56:24 23:59:44 21° 258° (WSW) 00:03:03 437.505/2401.250
UKube-1 29 Apr 23:57:19 23:59:10 12° 78° (ENE) 00:01:00 .
PCSat 30 Apr 00:00:36 00:05:54 59° 289° (WNW) 00:11:12 145.827
POLYITAN 1 30 Apr 00:03:55 00:07:27 26° 282° (WNW) 00:11:00 437.675
BUGSAT 1 30 Apr 00:09:22 00:13:19 60° 101° (ESE) 00:17:22 437.445
QB50P2 30 Apr 00:11:15 00:14:15 19° 282° (WNW) 00:17:16 145.880/145.840
Gurwin Techsat 1B 30 Apr 00:23:19 00:23:49 10° 103° (ESE) 00:24:19 435.225
NANOSAT C BR1 30 Apr 00:30:49 00:32:43 13° 282° (WNW) 00:34:38 145.865
BEESAT 2 30 Apr 00:30:57 00:32:44 13° 248° (WSW) 00:34:31 435.950
SPROUT 30 Apr 00:31:19 00:35:12 33° 258° (WSW) 00:39:04 437.525
DX 1 30 Apr 00:34:35 00:38:58 76° 77° (ENE) 00:43:20 434.975-435.025
SRMSAT 30 Apr 01:13:00 01:18:59 76° 21° (NNE) 01:24:56 437.500
50 SAT 30 Apr 01:13:07 01:14:06 11° 258° (WSW) 01:15:05 437.505
Oscar 19 30 Apr 01:29:25 01:34:26 53° 282° (WNW) 01:39:27 437.125/150
UKube-1 30 Apr 01:31:17 01:34:54 26° 258° (WSW) 01:38:32 .
JUGNU 30 Apr 01:35:09 01:39:47 23° 197° (SSW) 01:44:25 437.505
YUBILEINY 30 Apr 01:41:14 01:44:35 13° 93° (E) 01:47:54 435.215
Gurwin Techsat 1B 30 Apr 01:58:22 02:03:27 48° 283° (WNW) 02:08:34 435.225
BEESAT 30 Apr 02:06:01 02:10:16 32° 78° (ENE) 02:14:28 436.000
ITUPSAT 1 30 Apr 02:48:28 02:53:13 69° 258° (WSW) 02:57:56 437.325
ISS 30 Apr 02:58:04 02:59:09 11° 126° (SE) 03:00:14 437.550
ITAMSAT 1 30 Apr 03:02:32 03:07:43 90° 115° (ESE) 03:12:56 435.822/435.867
SRMSAT 30 Apr 03:02:40 03:08:13 40° 200° (SSW) 03:13:45 437.500
MOZHAYETS 4 30 Apr 03:05:36 03:10:10 83° 78° (ENE) 03:14:42
AO-7 30 Apr 03:16:27 03:24:48 88° 107° (ESE) 03:33:12 .
SO-50 30 Apr 03:26:24 03:31:08 78° 111° (ESE) 03:35:46 436.795
JUGNU 30 Apr 03:27:28 03:29:36 12° 188° (S) 03:31:43 437.505
YUBILEINY 30 Apr 03:32:20 03:41:00 70° 273° (W) 03:49:37 435.215
Tancredo 1 30 Apr 03:43:31 03:46:37 81° 305° (NW) 03:49:42 437.200
BEESAT 30 Apr 03:45:44 03:47:44 13° 257° (WSW) 03:49:45 436.000
NO-84 30 Apr 03:47:22 03:50:07 38° 237° (WSW) 03:53:01 435.350 FM
CUBESAT XI-V 30 Apr 04:06:02 04:10:32 55° 78° (ENE) 04:15:03 437.345
RS-15 30 Apr 04:24:11 04:35:18 57° 110° (ESE) 04:46:56 29.354- 29.394
KKS-1 30 Apr 04:28:49 04:33:16 65° 258° (WSW) 04:37:42 437.445
ISS 30 Apr 04:32:52 04:35:27 21° 306° (NW) 04:38:01 437.550
DOVE 4 30 Apr 04:39:11 04:40:59 13° 101° (ESE) 04:42:48 437.250
STARS 30 Apr 04:50:27 04:54:54 84° 76° (ENE) 04:59:18 437.465
SRMSAT 30 Apr 04:54:00 04:57:49 17° 194° (SSW) 05:01:37 437.500
XW-2D 30 Apr 05:23:33 05:27:01 33° 101° (E) 05:30:32 145.860 - 145.880
XW-2B 30 Apr 05:30:27 05:34:04 41° 101° (ESE) 05:37:42 145.730 - 145.750
KAITUO 1B 30 Apr 05:31:31 05:34:54 31° 102° (ESE) 05:38:18 145.475/437.950
XW-2C 30 Apr 05:42:19 05:46:08 68° 101° (E) 05:49:59 145.795 - 145.815
LilacSat-2 30 Apr 05:45:27 05:49:18 83° 101° (E) 05:53:12 437.200
XW-2F 30 Apr 06:05:08 06:08:51 51° 281° (W) 06:12:36 145.980 - 146.000
NUDT-PHONESAT 30 Apr 06:05:24 06:09:07 67° 281° (W) 06:12:52 437.300
STRAND 1 30 Apr 06:09:40 06:12:58 17° 77° (ENE) 06:16:14 437.568
CUTE 1.7 + AOD 2 30 Apr 06:11:42 06:13:20 12° 102° (ESE) 06:14:59 437.475
DOVE 4 30 Apr 06:15:12 06:18:27 22° 282° (WNW) 06:21:41 437.250
CUTE-I 30 Apr 06:15:32 06:20:45 61° 283° (WNW) 06:26:01 437.470
M-CUBED/EXP-1 PRIME 30 Apr 06:17:12 06:19:46 15° 73° (ENE) 06:22:23 437.505
HO-68 30 Apr 06:19:10 06:25:08 29° 105° (ESE) 06:31:05 435.675
SEEDS 30 Apr 06:25:51 06:26:17 10° 102° (ESE) 06:26:44 437.485
RS-15 30 Apr 06:38:27 06:47:26 26° 293° (WNW) 06:56:47 29.354- 29.394
SRMSAT 30 Apr 06:47:24 06:47:57 10° 184° (S) 06:48:32 437.500
XW-2A 30 Apr 06:51:02 06:54:18 48° 101° (E) 06:57:37 145.665 - 145.685
JUGNU 30 Apr 07:06:29 07:09:52 15° 168° (SSE) 07:13:15 437.505
AAUSAT CUBESAT 2 30 Apr 07:19:33 07:23:00 25° 101° (ESE) 07:26:26 437.432
UWE-3 30 Apr 07:31:49 07:35:48 35° 102° (ESE) 07:39:56 435.000/436.395/437.385
CUTE 1.7 + AOD 2 30 Apr 07:45:18 07:48:53 26° 281° (WNW) 07:52:29 437.475
O/OREOS (USA 219) 30 Apr 07:46:03 07:50:29 53° 104° (ESE) 07:54:56 437.305
STRAND 1 30 Apr 07:47:32 07:51:52 28° 257° (WSW) 07:56:10 437.568
M-CUBED/EXP-1 PRIME 30 Apr 07:50:14 07:53:52 26° 255° (WSW) 07:57:39 437.505
CUBEBUG 2 30 Apr 07:52:33 07:56:47 58° 281° (WNW) 08:01:13 437.445
SEEDS 30 Apr 07:58:00 08:01:41 30° 282° (WNW) 08:05:24 437.485
HO-68 30 Apr 08:06:21 08:12:31 32° 285° (WNW) 08:18:44 435.675
ZACube-1 30 Apr 08:18:22 08:22:46 82° 103° (ESE) 08:27:17 437.345
AO-73 30 Apr 08:22:59 08:27:21 84° 99° (E) 08:31:52 145.935
Oscar 11 30 Apr 08:34:07 08:38:29 87° 276° (W) 08:42:51 .
SRMSAT 30 Apr 08:36:52 08:38:20 11° 173° (S) 08:39:48 437.500
OBJECT BX 30 Apr 08:50:20 08:52:55 18° 102° (ESE) 08:55:30 145.990 - 145.960
